| time (UTC) | temp F | wind direction | speed MPH | gust MPH | rain 1hr in | rain 24hr in | rain mn in | humidity % | barometer mb |
| 20260509031123 | 56 | 160 | 2.0 | 5.0 | 0.00 | 0.00 | 0.00 | 66 | 1021.4 |
| 20260509030520 | 57 | 155 | 1.0 | 6.0 | 0.00 | 0.00 | 0.00 | 65 | 1021.3 |
| 20260509030120 | 57 | 184 | 2.0 | 6.0 | 0.00 | 0.00 | 0.00 | 65 | 1021.3 |
| 20260509025519 | 57 | 126 | 2.0 | 5.0 | 0.00 | 0.00 | 0.00 | 65 | 1021.3 |
| 20260509025119 | 57 | 157 | 2.0 | 5.0 | 0.00 | 0.00 | 0.00 | 65 | 1021.2 |
| 20260509024519 | 57 | 158 | 2.0 | 5.0 | 0.00 | 0.00 | 0.00 | 64 | 1021.1 |
| 20260509024119 | 57 | 176 | 2.0 | 5.0 | 0.00 | 0.00 | 0.00 | 64 | 1021.2 |
| 20260509023520 | 58 | 160 | 2.0 | 8.0 | 0.00 | 0.00 | 0.00 | 63 | 1021.1 |
| 20260509023119 | 58 | 141 | 5.0 | 8.0 | 0.00 | 0.00 | 0.00 | 62 | 1021.1 |
| 20260509022519 | 58 | 158 | 2.0 | 9.0 | 0.00 | 0.00 | 0.00 | 63 | 1021.0 |
| 20260509022121 | 59 | 164 | 6.0 | 9.0 | 0.00 | 0.00 | 0.00 | 62 | 1021.0 |
| 20260509021621 | 59 | 199 | 0.0 | 4.0 | 0.00 | 0.00 | 0.00 | 61 | 1021.0 |
| 20260509021021 | 59 | 120 | 2.0 | 6.0 | 0.00 | 0.00 | 0.00 | 61 | 1020.9 |
| 20260509020621 | 59 | 174 | 2.0 | 6.0 | 0.00 | 0.00 | 0.00 | 61 | 1020.9 |
| 20260509020019 | 60 | 147 | 2.0 | 7.0 | 0.00 | 0.00 | 0.00 | 60 | 1020.9 |
| 20260509015620 | 60 | 107 | 1.0 | 4.0 | 0.00 | 0.00 | 0.00 | 60 | 1020.9 |
| 20260509015020 | 60 | 114 | 2.0 | 8.0 | 0.00 | 0.00 | 0.00 | 60 | 1020.9 |
| 20260509014619 | 59 | 176 | 2.0 | 8.0 | 0.00 | 0.00 | 0.00 | 60 | 1020.9 |
| 20260509014021 | 59 | 262 | 0.0 | 5.0 | 0.00 | 0.00 | 0.00 | 61 | 1020.9 |
| 20260509013620 | 59 | 182 | 1.0 | 5.0 | 0.00 | 0.00 | 0.00 | 60 | 1020.9 |
| 20260509013020 | 59 | 10 | 1.0 | 5.0 | 0.00 | 0.00 | 0.00 | 60 | 1020.9 |
| 20260509012619 | 59 | 22 | 1.0 | 5.0 | 0.00 | 0.00 | 0.00 | 60 | 1020.9 |
| 20260509012020 | 59 | 187 | 1.0 | 6.0 | 0.00 | 0.00 | 0.00 | 60 | 1020.9 |
| 20260509011620 | 59 | 162 | 4.0 | 6.0 | 0.00 | 0.00 | 0.00 | 59 | 1020.8 |
| 20260509011021 | 60 | 105 | 1.0 | 6.0 | 0.00 | 0.00 | 0.00 | 59 | 1020.8 |
| 20260509010621 | 60 | 106 | 2.0 | 10.0 | 0.00 | 0.00 | 0.00 | 60 | 1020.8 |
| 20260509010032 | 60 | 181 | 5.0 | 10.0 | 0.00 | 0.00 | 0.00 | 59 | 1020.9 |
| 20260509005619 | 60 | 182 | 1.0 | 6.0 | 0.00 | 0.00 | 0.00 | 60 | 1020.8 |
| 20260509005019 | 60 | 174 | 3.0 | 6.0 | 0.00 | 0.00 | 0.00 | 59 | 1020.8 |
| 20260509004619 | 60 | 208 | 2.0 | 6.0 | 0.00 | 0.00 | 0.00 | 60 | 1020.8 |
| 20260509004020 | 60 | 89 | 2.0 | 7.0 | 0.00 | 0.00 | 0.00 | 60 | 1020.7 |
| 20260509003620 | 60 | 240 | 3.0 | 7.0 | 0.00 | 0.00 | 0.00 | 59 | 1020.8 |
| 20260509003119 | 60 | 169 | 2.0 | 6.0 | 0.00 | 0.00 | 0.00 | 60 | 1020.8 |
| 20260509002519 | 60 | 114 | 1.0 | 9.0 | 0.00 | 0.00 | 0.00 | 61 | 1020.8 |
| 20260509002121 | 60 | 228 | 2.0 | 10.0 | 0.00 | 0.00 | 0.00 | 60 | 1020.8 |
| 20260509001519 | 60 | 134 | 4.0 | 10.0 | 0.00 | 0.00 | 0.00 | 61 | 1020.8 |
| 20260509001120 | 60 | 187 | 2.0 | 11.0 | 0.00 | 0.00 | 0.00 | 60 | 1020.8 |
| 20260509000519 | 60 | 197 | 6.0 | 11.0 | 0.00 | 0.00 | 0.00 | 60 | 1020.8 |
| 20260509000119 | 60 | 226 | 3.0 | 10.0 | 0.00 | 0.00 | 0.00 | 60 | 1020.8 |
| 20260508235520 | 60 | 229 | 5.0 | 10.0 | 0.00 | 0.00 | 0.00 | 61 | 1020.8 |
| 20260508235119 | 60 | 160 | 3.0 | 8.0 | 0.00 | 0.00 | 0.00 | 61 | 1020.7 |
| 20260508234519 | 60 | 126 | 4.0 | 8.0 | 0.00 | 0.00 | 0.00 | 61 | 1020.7 |
| 20260508234019 | 59 | 166 | 3.0 | 10.0 | 0.00 | 0.00 | 0.00 | 62 | 1020.7 |
| 20260508233621 | 59 | 149 | 6.0 | 10.0 | 0.00 | 0.00 | 0.00 | 62 | 1020.6 |
| 20260508233019 | 59 | 217 | 5.0 | 10.0 | 0.00 | 0.00 | 0.00 | 62 | 1020.5 |
| 20260508232619 | 59 | 176 | 6.0 | 12.0 | 0.00 | 0.00 | 0.00 | 62 | 1020.6 |
| 20260508232019 | 59 | 181 | 5.0 | 10.0 | 0.00 | 0.00 | 0.00 | 63 | 1020.6 |
| 20260508231620 | 59 | 178 | 5.0 | 10.0 | 0.00 | 0.00 | 0.00 | 63 | 1020.7 |
| 20260508231019 | 59 | 168 | 4.0 | 9.0 | 0.00 | 0.00 | 0.00 | 64 | 1020.7 |
| 20260508230620 | 59 | 131 | 3.0 | 8.0 | 0.00 | 0.00 | 0.00 | 64 | 1020.7 |
| 20260508230023 | 59 | 193 | 1.0 | 11.0 | 0.00 | 0.00 | 0.00 | 64 | 1020.8 |
| 20260508225619 | 59 | 180 | 4.0 | 11.0 | 0.00 | 0.00 | 0.00 | 64 | 1020.7 |
| 20260508225020 | 59 | 95 | 4.0 | 10.0 | 0.00 | 0.00 | 0.00 | 64 | 1020.5 |
| 20260508224621 | 59 | 319 | 2.0 | 8.0 | 0.00 | 0.00 | 0.00 | 65 | 1020.4 |
| 20260508224023 | 59 | 20 | 2.0 | 6.0 | 0.00 | 0.00 | 0.00 | 66 | 1020.4 |
| 20260508223619 | 59 | 51 | 2.0 | 6.0 | 0.00 | 0.00 | 0.00 | 67 | 1020.3 |
| 20260508223035 | 58 | 73 | 2.0 | 8.0 | 0.00 | 0.00 | 0.00 | 66 | 1020.4 |
| 20260508222620 | 58 | 37 | 4.0 | 8.0 | 0.00 | 0.00 | 0.00 | 66 | 1020.4 |
| 20260508222018 | 58 | 89 | 1.0 | 6.0 | 0.00 | 0.00 | 0.00 | 68 | 1020.5 |
| 20260508221619 | 58 | 164 | 0.0 | 5.0 | 0.00 | 0.00 | 0.00 | 67 | 1020.5 |
| 20260508221022 | 57 | 48 | 3.0 | 5.0 | 0.00 | 0.00 | 0.00 | 68 | 1020.5 |
| 20260508220619 | 57 | 43 | 1.0 | 6.0 | 0.00 | 0.00 | 0.00 | 69 | 1020.5 |
| 20260508220022 | 57 | 110 | 1.0 | 6.0 | 0.00 | 0.00 | 0.00 | 71 | 1020.5 |
| 20260508215623 | 56 | 220 | 1.0 | 5.0 | 0.00 | 0.00 | 0.00 | 70 | 1020.4 |
| 20260508215020 | 56 | 360 | 1.0 | 9.0 | 0.00 | 0.00 | 0.00 | 70 | 1020.4 |
| 20260508214619 | 56 | 68 | 3.0 | 9.0 | 0.00 | 0.00 | 0.00 | 71 | 1020.3 |
| 20260508214018 | 56 | 222 | 0.0 | 3.0 | 0.00 | 0.00 | 0.00 | 71 | 1020.4 |
| 20260508213618 | 56 | 203 | 1.0 | 4.0 | 0.00 | 0.00 | 0.00 | 71 | 1020.4 |
| 20260508213034 | 56 | 163 | 2.0 | 6.0 | 0.00 | 0.00 | 0.00 | 70 | 1020.5 |
| 20260508212619 | 56 | 177 | 2.0 | 6.0 | 0.00 | 0.00 | 0.00 | 70 | 1020.5 |
| 20260508212023 | 56 | 155 | 2.0 | 7.0 | 0.00 | 0.00 | 0.00 | 71 | 1020.5 |
| 20260508211619 | 56 | 257 | 1.0 | 8.0 | 0.00 | 0.00 | 0.00 | 71 | 1020.4 |
| 20260508211020 | 56 | 198 | 3.0 | 8.0 | 0.00 | 0.00 | 0.00 | 70 | 1020.3 |
| 20260508210020 | 56 | 156 | 5.0 | 11.0 | 0.00 | 0.00 | 0.00 | 69 | 1020.1 |
| 20260508205621 | 56 | 143 | 5.0 | 10.0 | 0.00 | 0.00 | 0.00 | 70 | 1020.2 |
| 20260508205019 | 56 | 164 | 4.0 | 10.0 | 0.00 | 0.00 | 0.00 | 70 | 1019.9 |
| 20260508204619 | 56 | 191 | 5.0 | 10.0 | 0.00 | 0.00 | 0.00 | 70 | 1020.0 |
| 20260508204026 | 56 | 139 | 5.0 | 9.0 | 0.00 | 0.00 | 0.00 | 70 | 1019.9 |
| 20260508203621 | 56 | 184 | 4.0 | 10.0 | 0.00 | 0.00 | 0.00 | 70 | 1019.9 |
| 20260508203019 | 56 | 144 | 4.0 | 9.0 | 0.00 | 0.00 | 0.00 | 69 | 1019.9 |
| 20260508202623 | 56 | 173 | 4.0 | 8.0 | 0.00 | 0.00 | 0.00 | 69 | 1019.9 |
| 20260508202018 | 56 | 161 | 3.0 | 8.0 | 0.00 | 0.00 | 0.00 | 69 | 1019.8 |
| 20260508201621 | 56 | 93 | 2.0 | 6.0 | 0.00 | 0.00 | 0.00 | 69 | 1019.8 |
| 20260508201047 | 56 | 21 | 2.0 | 6.0 | 0.00 | 0.00 | 0.00 | 71 | 1019.7 |
| 20260508200520 | 56 | 83 | 0.0 | 4.0 | 0.00 | 0.00 | 0.00 | 71 | 1019.7 |
| 20260508200120 | 56 | 171 | 1.0 | 4.0 | 0.00 | 0.00 | 0.00 | 72 | 1019.7 |
| 20260508195518 | 55 | 112 | 1.0 | 6.0 | 0.00 | 0.00 | 0.00 | 71 | 1019.6 |
| 20260508195121 | 55 | 211 | 1.0 | 6.0 | 0.00 | 0.00 | 0.00 | 71 | 1019.6 |
| 20260508194519 | 55 | 201 | 2.0 | 8.0 | 0.00 | 0.00 | 0.00 | 72 | 1019.5 |
| 20260508194119 | 55 | 202 | 3.0 | 8.0 | 0.00 | 0.00 | 0.00 | 72 | 1019.5 |
| 20260508193519 | 55 | 122 | 4.0 | 8.0 | 0.00 | 0.00 | 0.00 | 73 | 1019.5 |
| 20260508193122 | 55 | 147 | 1.0 | 6.0 | 0.00 | 0.00 | 0.00 | 74 | 1019.4 |
| 20260508192519 | 55 | 355 | 1.0 | 6.0 | 0.00 | 0.00 | 0.00 | 74 | 1019.3 |
| 20260508192119 | 55 | 172 | 1.0 | 12.0 | 0.00 | 0.00 | 0.00 | 74 | 1019.2 |
| 20260508191522 | 55 | 150 | 3.0 | 12.0 | 0.00 | 0.00 | 0.00 | 74 | 1019.2 |
| 20260508191119 | 55 | 160 | 4.0 | 8.0 | 0.00 | 0.00 | 0.00 | 74 | 1019.2 |
| 20260508190527 | 55 | 228 | 1.0 | 14.0 | 0.00 | 0.00 | 0.00 | 74 | 1019.0 |
| 20260508190119 | 55 | 153 | 4.0 | 14.0 | 0.00 | 0.00 | 0.00 | 74 | 1019.0 |
| 20260508185519 | 55 | 173 | 1.0 | 12.0 | 0.00 | 0.00 | 0.00 | 75 | 1019.0 |
| 20260508185121 | 55 | 200 | 5.0 | 12.0 | 0.00 | 0.00 | 0.00 | 76 | 1018.9 |
| 20260508184619 | 55 | 130 | 3.0 | 9.0 | 0.00 | 0.00 | 0.00 | 77 | 1018.8 |
| 20260508184019 | 55 | 63 | 2.0 | 8.0 | 0.00 | 0.00 | 0.00 | 77 | 1018.6 |
| 20260508183619 | 55 | 195 | 2.0 | 10.0 | 0.00 | 0.00 | 0.00 | 77 | 1018.5 |
| 20260508183019 | 56 | 150 | 6.0 | 13.0 | 0.00 | 0.00 | 0.00 | 76 | 1018.7 |
| 20260508182620 | 56 | 211 | 6.0 | 13.0 | 0.00 | 0.00 | 0.00 | 75 | 1018.8 |
| 20260508182018 | 57 | 177 | 3.0 | 10.0 | 0.00 | 0.00 | 0.00 | 75 | 1018.7 |
| 20260508181619 | 57 | 201 | 3.0 | 10.0 | 0.00 | 0.00 | 0.00 | 74 | 1018.6 |
| 20260508181018 | 57 | 222 | 1.0 | 7.0 | 0.00 | 0.00 | 0.00 | 74 | 1018.4 |
| 20260508180619 | 57 | 145 | 1.0 | 7.0 | 0.00 | 0.00 | 0.00 | 74 | 1018.3 |
| 20260508180024 | 57 | 343 | 1.0 | 5.0 | 0.00 | 0.00 | 0.00 | 74 | 1018.3 |
| 20260508175619 | 57 | 64 | 3.0 | 9.0 | 0.00 | 0.00 | 0.00 | 74 | 1018.2 |
| 20260508175019 | 57 | 185 | 2.0 | 9.0 | 0.00 | 0.00 | 0.00 | 75 | 1018.1 |
| 20260508174619 | 57 | 191 | 5.0 | 9.0 | 0.00 | 0.00 | 0.00 | 74 | 1018.1 |
| 20260508174019 | 58 | 99 | 3.0 | 8.0 | 0.00 | 0.00 | 0.00 | 74 | 1018.0 |
| 20260508173620 | 58 | 347 | 1.0 | 8.0 | 0.00 | 0.00 | 0.00 | 74 | 1018.1 |
| 20260508173019 | 58 | 227 | 3.0 | 10.0 | 0.00 | 0.00 | 0.00 | 74 | 1018.1 |
| 20260508172619 | 58 | 227 | 2.0 | 10.0 | 0.00 | 0.00 | 0.00 | 74 | 1017.9 |
| 20260508172022 | 58 | 147 | 2.0 | 5.0 | 0.00 | 0.00 | 0.00 | 74 | 1017.9 |
| 20260508171622 | 58 | 231 | 1.0 | 8.0 | 0.00 | 0.00 | 0.00 | 74 | 1017.8 |
| 20260508171018 | 58 | 215 | 3.0 | 11.0 | 0.00 | 0.00 | 0.00 | 75 | 1017.7 |
| 20260508170619 | 57 | 144 | 4.0 | 11.0 | 0.00 | 0.00 | 0.00 | 75 | 1017.6 |
| 20260508170019 | 57 | 202 | 1.0 | 12.0 | 0.00 | 0.00 | 0.00 | 75 | 1017.5 |
| 20260508165619 | 57 | 181 | 3.0 | 12.0 | 0.00 | 0.00 | 0.00 | 75 | 1017.5 |
| 20260508165019 | 57 | 51 | 2.0 | 8.0 | 0.00 | 0.00 | 0.00 | 76 | 1017.5 |
| 20260508164619 | 57 | 43 | 1.0 | 10.0 | 0.00 | 0.00 | 0.00 | 77 | 1017.6 |
| 20260508164021 | 57 | 67 | 2.0 | 10.0 | 0.00 | 0.00 | 0.00 | 77 | 1017.5 |
| 20260508163619 | 57 | 10 | 0.0 | 9.0 | 0.00 | 0.00 | 0.00 | 77 | 1017.5 |
| 20260508163020 | 57 | 336 | 3.0 | 7.0 | 0.00 | 0.00 | 0.00 | 77 | 1017.6 |
| 20260508162619 | 57 | 162 | 3.0 | 7.0 | 0.00 | 0.00 | 0.00 | 77 | 1017.5 |
| 20260508162018 | 57 | 270 | 3.0 | 9.0 | 0.00 | 0.00 | 0.00 | 77 | 1017.3 |
| 20260508161619 | 57 | 191 | 4.0 | 10.0 | 0.00 | 0.00 | 0.00 | 77 | 1017.4 |
| 20260508161020 | 57 | 179 | 3.0 | 10.0 | 0.00 | 0.00 | 0.00 | 77 | 1017.2 |
| 20260508160620 | 57 | 183 | 2.0 | 8.0 | 0.00 | 0.00 | 0.00 | 77 | 1017.2 |
| 20260508160043 | 56 | 249 | 2.0 | 5.0 | 0.00 | 0.00 | 0.00 | 78 | 1017.1 |
| 20260508155618 | 56 | 205 | 2.0 | 4.0 | 0.00 | 0.00 | 0.00 | 78 | 1017.0 |
| 20260508155019 | 56 | 298 | 1.0 | 5.0 | 0.00 | 0.00 | 0.00 | 78 | 1017.1 |
| 20260508154620 | 56 | 157 | 1.0 | 7.0 | 0.00 | 0.00 | 0.00 | 78 | 1017.0 |
| 20260508154021 | 56 | 87 | 2.0 | 7.0 | 0.00 | 0.00 | 0.00 | 78 | 1017.2 |
| 20260508153619 | 56 | 172 | 3.0 | 6.0 | 0.00 | 0.00 | 0.00 | 78 | 1017.3 |
| 20260508153020 | 56 | 183 | 2.0 | 7.0 | 0.00 | 0.00 | 0.00 | 79 | 1017.2 |
| 20260508152621 | 56 | 175 | 3.0 | 7.0 | 0.00 | 0.00 | 0.00 | 79 | 1017.2 |
| 20260508152021 | 56 | 159 | 2.0 | 6.0 | 0.00 | 0.00 | 0.00 | 79 | 1017.0 |
| 20260508151619 | 56 | 145 | 2.0 | 6.0 | 0.00 | 0.00 | 0.00 | 79 | 1016.9 |
| 20260508151020 | 56 | 214 | 0.0 | 3.0 | 0.00 | 0.00 | 0.00 | 79 | 1017.0 |
| 20260508150620 | 56 | 218 | 0.0 | 4.0 | 0.00 | 0.00 | 0.00 | 79 | 1017.0 |
| 20260508150032 | 56 | 117 | 1.0 | 4.0 | 0.00 | 0.00 | 0.00 | 79 | 1017.0 |
| 20260508145548 | 56 | 150 | 1.0 | 3.0 | 0.00 | 0.00 | 0.00 | 80 | 1017.0 |
| 20260508145022 | 55 | 195 | 1.0 | 3.0 | 0.00 | 0.00 | 0.00 | 80 | 1016.9 |
| 20260508144621 | 55 | 221 | 1.0 | 3.0 | 0.00 | 0.00 | 0.00 | 80 | 1016.9 |
| 20260508144019 | 55 | 311 | 1.0 | 3.0 | 0.00 | 0.00 | 0.00 | 80 | 1016.8 |
| 20260508143620 | 55 | 72 | 1.0 | 5.0 | 0.00 | 0.00 | 0.00 | 80 | 1016.7 |
| 20260508143027 | 55 | 172 | 1.0 | 5.0 | 0.00 | 0.00 | 0.00 | 80 | 1016.6 |
| 20260508142619 | 55 | 99 | 1.0 | 4.0 | 0.00 | 0.00 | 0.00 | 80 | 1016.5 |
| 20260508142021 | 55 | 168 | 2.0 | 4.0 | 0.00 | 0.00 | 0.00 | 80 | 1016.5 |
| 20260508141619 | 55 | 184 | 1.0 | 5.0 | 0.00 | 0.00 | 0.00 | 80 | 1016.5 |
| 20260508141019 | 55 | 180 | 3.0 | 5.0 | 0.00 | 0.00 | 0.00 | 80 | 1016.5 |
| 20260508140619 | 55 | 193 | 3.0 | 6.0 | 0.00 | 0.00 | 0.00 | 80 | 1016.5 |
| 20260508140119 | 55 | 190 | 3.0 | 6.0 | 0.00 | 0.00 | 0.00 | 80 | 1016.4 |
| 20260508135519 | 55 | 159 | 2.0 | 4.0 | 0.00 | 0.00 | 0.00 | 80 | 1016.4 |
| 20260508135119 | 55 | 210 | 2.0 | 4.0 | 0.00 | 0.00 | 0.00 | 80 | 1016.3 |
| 20260508134528 | 55 | 204 | 1.0 | 2.0 | 0.00 | 0.00 | 0.00 | 80 | 1016.3 |
| 20260508134119 | 55 | 204 | 0.0 | 2.0 | 0.00 | 0.00 | 0.00 | 80 | 1016.3 |
| 20260508133518 | 55 | 204 | 0.0 | 2.0 | 0.00 | 0.00 | 0.00 | 80 | 1016.3 |
| 20260508133118 | 55 | 204 | 0.0 | 2.0 | 0.00 | 0.00 | 0.00 | 80 | 1016.3 |
| 20260508132520 | 55 | 124 | 0.0 | 1.0 | 0.00 | 0.00 | 0.00 | 80 | 1016.1 |
| 20260508132118 | 55 | 124 | 0.0 | 1.0 | 0.00 | 0.00 | 0.00 | 80 | 1016.2 |
| 20260508131519 | 55 | 124 | 0.0 | 1.0 | 0.00 | 0.00 | 0.00 | 79 | 1016.2 |
| 20260508131120 | 55 | 124 | 0.0 | 1.0 | 0.00 | 0.00 | 0.00 | 79 | 1016.2 |
| 20260508130519 | 55 | 124 | 0.0 | 1.0 | 0.00 | 0.00 | 0.00 | 78 | 1016.1 |
| 20260508130119 | 55 | 124 | 0.0 | 2.0 | 0.00 | 0.00 | 0.00 | 78 | 1016.1 |
| 20260508125523 | 55 | 124 | 0.0 | 2.0 | 0.00 | 0.00 | 0.00 | 78 | 1016.1 |
| 20260508125120 | 55 | 124 | 0.0 | 2.0 | 0.00 | 0.00 | 0.00 | 78 | 1016.0 |
| 20260508124519 | 55 | 60 | 0.0 | 1.0 | 0.00 | 0.00 | 0.00 | 78 | 1015.9 |
| 20260508124119 | 55 | 60 | 0.0 | 2.0 | 0.00 | 0.00 | 0.00 | 78 | 1016.0 |
| 20260508123519 | 55 | 60 | 0.0 | 2.0 | 0.00 | 0.00 | 0.00 | 78 | 1015.8 |
| 20260508123119 | 55 | 60 | 0.0 | 2.0 | 0.00 | 0.00 | 0.00 | 78 | 1015.9 |
| 20260508122519 | 55 | 60 | 0.0 | 1.0 | 0.00 | 0.00 | 0.00 | 78 | 1015.9 |
| 20260508122119 | 55 | 60 | 0.0 | 3.0 | 0.00 | 0.00 | 0.00 | 78 | 1015.9 |
| 20260508121547 | 55 | 60 | 1.0 | 3.0 | 0.00 | 0.00 | 0.00 | 78 | 1015.8 |
| 20260508121119 | 55 | 37 | 0.0 | 2.0 | 0.00 | 0.00 | 0.00 | 77 | 1015.8 |
| 20260508120519 | 55 | 37 | 1.0 | 2.0 | 0.00 | 0.00 | 0.00 | 77 | 1016.0 |
| 20260508120119 | 55 | 45 | 0.0 | 3.0 | 0.00 | 0.00 | 0.00 | 77 | 1016.0 |
| 20260508115519 | 55 | 45 | 1.0 | 3.0 | 0.00 | 0.00 | 0.00 | 77 | 1016.0 |
| 20260508115118 | 55 | 21 | 1.0 | 3.0 | 0.00 | 0.00 | 0.00 | 77 | 1015.9 |
| 20260508114518 | 55 | 27 | 1.0 | 3.0 | 0.00 | 0.00 | 0.00 | 77 | 1016.0 |
| 20260508114119 | 55 | 49 | 1.0 | 3.0 | 0.00 | 0.00 | 0.00 | 77 | 1015.8 |
| 20260508113519 | 55 | 18 | 0.0 | 3.0 | 0.00 | 0.00 | 0.00 | 77 | 1015.9 |
| 20260508113120 | 55 | 58 | 1.0 | 2.0 | 0.00 | 0.00 | 0.00 | 77 | 1015.8 |
| 20260508112519 | 55 | 58 | 0.0 | 2.0 | 0.00 | 0.00 | 0.00 | 77 | 1015.8 |
| 20260508112119 | 55 | 58 | 0.0 | 4.0 | 0.00 | 0.00 | 0.00 | 77 | 1015.7 |
| 20260508111519 | 55 | 78 | 1.0 | 4.0 | 0.00 | 0.00 | 0.00 | 78 | 1015.6 |
| 20260508111122 | 55 | 54 | 1.0 | 3.0 | 0.00 | 0.00 | 0.00 | 78 | 1015.7 |
| 20260508110519 | 55 | 43 | 1.0 | 2.0 | 0.00 | 0.00 | 0.00 | 79 | 1015.8 |
| 20260508110118 | 55 | 43 | 0.0 | 2.0 | 0.00 | 0.00 | 0.00 | 79 | 1015.8 |
| 20260508105519 | 55 | 43 | 0.0 | 3.0 | 0.00 | 0.00 | 0.00 | 79 | 1015.8 |
| 20260508105119 | 55 | 43 | 1.0 | 3.0 | 0.00 | 0.00 | 0.00 | 79 | 1015.8 |
| 20260508104524 | 55 | 31 | 1.0 | 4.0 | 0.00 | 0.00 | 0.00 | 79 | 1015.8 |
| 20260508104019 | 55 | 47 | 0.0 | 4.0 | 0.00 | 0.00 | 0.00 | 80 | 1015.7 |
| 20260508103520 | 55 | 68 | 1.0 | 3.0 | 0.00 | 0.00 | 0.00 | 80 | 1015.7 |
| 20260508103126 | 55 | 56 | 0.0 | 1.0 | 0.00 | 0.00 | 0.00 | 80 | 1015.8 |
| 20260508102519 | 55 | 56 | 0.0 | 1.0 | 0.00 | 0.00 | 0.00 | 81 | 1015.8 |
| 20260508102119 | 55 | 56 | 0.0 | 1.0 | 0.00 | 0.00 | 0.00 | 81 | 1015.8 |
| 20260508101520 | 55 | 56 | 0.0 | 2.0 | 0.00 | 0.00 | 0.00 | 80 | 1015.8 |
| 20260508101120 | 55 | 56 | 0.0 | 2.0 | 0.00 | 0.00 | 0.00 | 80 | 1015.8 |
| 20260508100518 | 55 | 56 | 0.0 | 2.0 | 0.00 | 0.00 | 0.00 | 80 | 1015.8 |
| 20260508100119 | 55 | 56 | 1.0 | 2.0 | 0.00 | 0.00 | 0.00 | 80 | 1015.7 |
| 20260508095519 | 55 | 5 | 0.0 | 2.0 | 0.00 | 0.00 | 0.00 | 80 | 1015.7 |
| 20260508095121 | 55 | 5 | 0.0 | 2.0 | 0.00 | 0.00 | 0.00 | 79 | 1015.7 |
| 20260508094518 | 55 | 5 | 0.0 | 2.0 | 0.00 | 0.00 | 0.00 | 79 | 1015.6 |
| 20260508094118 | 55 | 60 | 0.0 | 2.0 | 0.00 | 0.00 | 0.00 | 79 | 1015.6 |
| 20260508093519 | 55 | 235 | 0.0 | 2.0 | 0.00 | 0.00 | 0.00 | 80 | 1015.7 |
| 20260508093122 | 55 | 239 | 0.0 | 4.0 | 0.00 | 0.00 | 0.00 | 80 | 1015.6 |
| 20260508092522 | 55 | 347 | 0.0 | 4.0 | 0.00 | 0.00 | 0.00 | 80 | 1015.5 |
| 20260508092019 | 55 | 10 | 0.0 | 2.0 | 0.00 | 0.00 | 0.00 | 80 | 1015.5 |
| 20260508091620 | 55 | 10 | 0.0 | 2.0 | 0.00 | 0.00 | 0.00 | 80 | 1015.5 |
| 20260508091018 | 55 | 147 | 0.0 | 1.0 | 0.00 | 0.00 | 0.00 | 80 | 1015.5 |
| 20260508090523 | 55 | 147 | 0.0 | 1.0 | 0.00 | 0.00 | 0.00 | 80 | 1015.5 |
| 20260508090024 | 55 | 147 | 0.0 | 1.0 | 0.00 | 0.00 | 0.00 | 80 | 1015.6 |
| 20260508085524 | 55 | 147 | 0.0 | 1.0 | 0.00 | 0.00 | 0.00 | 80 | 1015.6 |
| 20260508085120 | 55 | 147 | 0.0 | 0.0 | 0.00 | 0.00 | 0.00 | 79 | 1015.7 |
| 20260508084521 | 55 | 147 | 0.0 | 0.0 | 0.00 | 0.00 | 0.00 | 79 | 1015.7 |
| 20260508084118 | 55 | 147 | 0.0 | 1.0 | 0.00 | 0.00 | 0.00 | 79 | 1015.7 |
| 20260508083518 | 55 | 147 | 0.0 | 1.0 | 0.00 | 0.00 | 0.00 | 79 | 1015.7 |
| 20260508083156 | 55 | 147 | 0.0 | 1.0 | 0.00 | 0.00 | 0.00 | 79 | 1015.7 |
| 20260508082523 | 55 | 147 | 0.0 | 2.0 | 0.00 | 0.00 | 0.00 | 79 | 1015.8 |
| 20260508082119 | 55 | 147 | 0.0 | 3.0 | 0.00 | 0.00 | 0.00 | 79 | 1015.8 |
| 20260508081521 | 55 | 147 | 1.0 | 3.0 | 0.00 | 0.00 | 0.00 | 79 | 1015.7 |
| 20260508081118 | 55 | 42 | 0.0 | 2.0 | 0.00 | 0.00 | 0.00 | 79 | 1015.7 |
| 20260508080519 | 55 | 42 | 1.0 | 2.0 | 0.00 | 0.00 | 0.00 | 79 | 1015.8 |
| 20260508080118 | 55 | 42 | 1.0 | 2.0 | 0.00 | 0.00 | 0.00 | 79 | 1015.8 |
| 20260508075520 | 55 | 42 | 1.0 | 2.0 | 0.00 | 0.00 | 0.00 | 78 | 1015.9 |
| 20260508075118 | 55 | 42 | 1.0 | 2.0 | 0.00 | 0.00 | 0.00 | 78 | 1016.0 |
| 20260508074525 | 55 | 42 | 0.0 | 3.0 | 0.00 | 0.00 | 0.00 | 77 | 1016.0 |
| 20260508074123 | 55 | 42 | 0.0 | 3.0 | 0.00 | 0.00 | 0.00 | 77 | 1016.0 |
| 20260508073519 | 56 | 42 | 0.0 | 3.0 | 0.00 | 0.00 | 0.00 | 76 | 1016.0 |
| 20260508073119 | 56 | 42 | 1.0 | 3.0 | 0.00 | 0.00 | 0.00 | 76 | 1016.1 |
| 20260508072518 | 56 | 53 | 1.0 | 3.0 | 0.00 | 0.00 | 0.00 | 76 | 1016.1 |
| 20260508072018 | 56 | 53 | 0.0 | 3.0 | 0.00 | 0.00 | 0.00 | 75 | 1016.2 |
| 20260508071524 | 56 | 53 | 1.0 | 3.0 | 0.00 | 0.00 | 0.00 | 75 | 1016.1 |
| 20260508071026 | 56 | 57 | 1.0 | 3.0 | 0.00 | 0.00 | 0.00 | 75 | 1016.1 |
| 20260508070522 | 57 | 51 | 1.0 | 3.0 | 0.00 | 0.00 | 0.00 | 75 | 1016.2 |
| 20260508070119 | 57 | 51 | 1.0 | 3.0 | 0.00 | 0.00 | 0.00 | 74 | 1016.3 |
| 20260508065519 | 57 | 185 | 0.0 | 1.0 | 0.00 | 0.00 | 0.00 | 74 | 1016.3 |
| 20260508065119 | 57 | 185 | 0.0 | 1.0 | 0.00 | 0.00 | 0.00 | 75 | 1016.3 |
| 20260508064538 | 57 | 185 | 0.0 | 1.0 | 0.00 | 0.00 | 0.00 | 75 | 1016.3 |
| 20260508064119 | 57 | 185 | 0.0 | 1.0 | 0.00 | 0.00 | 0.00 | 75 | 1016.4 |
| 20260508063520 | 57 | 185 | 0.0 | 1.0 | 0.00 | 0.00 | 0.00 | 74 | 1016.4 |
| 20260508063121 | 57 | 185 | 0.0 | 2.0 | 0.00 | 0.00 | 0.00 | 74 | 1016.4 |
| 20260508062618 | 57 | 185 | 0.0 | 2.0 | 0.00 | 0.00 | 0.00 | 74 | 1016.4 |
| 20260508062019 | 57 | 185 | 0.0 | 2.0 | 0.00 | 0.00 | 0.00 | 74 | 1016.4 |
| 20260508061524 | 57 | 185 | 0.0 | 3.0 | 0.00 | 0.00 | 0.00 | 74 | 1016.4 |
| 20260508061119 | 57 | 185 | 0.0 | 4.0 | 0.00 | 0.00 | 0.00 | 74 | 1016.4 |
| 20260508060519 | 57 | 200 | 1.0 | 4.0 | 0.00 | 0.00 | 0.00 | 74 | 1016.3 |
| 20260508060122 | 57 | 190 | 1.0 | 4.0 | 0.00 | 0.00 | 0.00 | 74 | 1016.3 |
| 20260508055518 | 57 | 189 | 1.0 | 4.0 | 0.00 | 0.00 | 0.00 | 74 | 1016.3 |
| 20260508055119 | 57 | 143 | 0.0 | 4.0 | 0.00 | 0.00 | 0.00 | 73 | 1016.3 |
| 20260508054520 | 57 | 181 | 2.0 | 5.0 | 0.00 | 0.00 | 0.00 | 73 | 1016.2 |
| 20260508054118 | 57 | 171 | 3.0 | 5.0 | 0.00 | 0.00 | 0.00 | 73 | 1016.1 |
| 20260508053521 | 58 | 79 | 1.0 | 3.0 | 0.00 | 0.00 | 0.00 | 73 | 1016.1 |
| 20260508053019 | 58 | 235 | 1.0 | 3.0 | 0.00 | 0.00 | 0.00 | 73 | 1016.1 |
| 20260508052620 | 58 | 204 | 1.0 | 6.0 | 0.00 | 0.00 | 0.00 | 73 | 1016.1 |
| 20260508052021 | 58 | 135 | 3.0 | 6.0 | 0.00 | 0.00 | 0.00 | 73 | 1016.0 |
| 20260508051520 | 58 | 189 | 2.0 | 5.0 | 0.00 | 0.00 | 0.00 | 73 | 1016.0 |
| 20260508051119 | 58 | 192 | 0.0 | 4.0 | 0.00 | 0.00 | 0.00 | 73 | 1015.9 |
| 20260508050519 | 58 | 319 | 0.0 | 5.0 | 0.00 | 0.00 | 0.00 | 73 | 1016.0 |
| 20260508050023 | 58 | 114 | 2.0 | 5.0 | 0.00 | 0.00 | 0.00 | 72 | 1016.1 |
| 20260508045518 | 58 | 191 | 1.0 | 3.0 | 0.00 | 0.00 | 0.00 | 72 | 1016.2 |
| 20260508045119 | 59 | 171 | 2.0 | 5.0 | 0.00 | 0.00 | 0.00 | 71 | 1016.2 |
| 20260508044620 | 59 | 157 | 2.0 | 5.0 | 0.00 | 0.00 | 0.00 | 71 | 1016.1 |
| 20260508044119 | 59 | 181 | 2.0 | 6.0 | 0.00 | 0.00 | 0.00 | 71 | 1016.2 |
| 20260508043522 | 59 | 212 | 3.0 | 6.0 | 0.00 | 0.00 | 0.00 | 70 | 1016.2 |
| 20260508043019 | 59 | 199 | 3.0 | 6.0 | 0.00 | 0.00 | 0.00 | 70 | 1016.2 |
| 20260508042618 | 59 | 163 | 3.0 | 7.0 | 0.00 | 0.00 | 0.00 | 70 | 1016.2 |
| 20260508042018 | 60 | 197 | 2.0 | 7.0 | 0.00 | 0.00 | 0.00 | 70 | 1016.2 |
| 20260508041619 | 60 | 163 | 3.0 | 7.0 | 0.00 | 0.00 | 0.00 | 70 | 1016.3 |
| 20260508041032 | 60 | 168 | 4.0 | 6.0 | 0.00 | 0.00 | 0.00 | 70 | 1016.3 |
| 20260508040509 | 60 | 164 | 3.0 | 7.0 | 0.00 | 0.00 | 0.00 | 68 | 1016.2 |
| 20260508040033 | 60 | 318 | 0.0 | 1.0 | 0.00 | 0.00 | 0.00 | 68 | 1016.2 |
| 20260508035620 | 60 | 318 | 0.0 | 1.0 | 0.00 | 0.00 | 0.00 | 68 | 1016.0 |
| 20260508035027 | 61 | 318 | 0.0 | 2.0 | 0.00 | 0.00 | 0.00 | 68 | 1016.1 |
| 20260508034520 | 61 | 318 | 0.0 | 2.0 | 0.00 | 0.00 | 0.00 | 68 | 1016.0 |
| 20260508034005 | 61 | 318 | 0.0 | 1.0 | 0.00 | 0.00 | 0.00 | 69 | 1016.1 |
| 20260508033005 | 61 | 318 | 0.0 | 1.0 | 0.00 | 0.00 | 0.00 | 66 | 1016.0 |
| 20260508032505 | 61 | 318 | 0.0 | 2.0 | 0.00 | 0.00 | 0.00 | 66 | 1016.0 |
| 20260508032004 | 61 | 318 | 0.0 | 2.0 | 0.00 | 0.00 | 0.00 | 66 | 1016.0 |
| 20260508031504 | 61 | 318 | 0.0 | 2.0 | 0.00 | 0.00 | 0.00 | 65 | 1016.0 |